Terminal Aerodrome Forecast
Issued by NWS Cheyenne, WY

Home | Current Version | Previous Version | Text Only | Print | Product List | Glossary On
Versions: 1 2 3 4 5 6 7 8 9 10 11 12 13 14 15 16 17 18 19 20 21 22 23 24 25 26 27 28 29 30 31 32 33 34 35 36 37 38 39 40 41 42 43 44 45 46 47 48 49 50
000
FTUS45 KCYS 240358 AAB
TAFCYS
TAF AMD
KCYS 240358Z 2404/2424 13005KT 6SM BR OVC009
     FM240600 16007KT 3SM BR OVC005
      TEMPO 2407/2410 1/2SM DZ FG OVC001
     FM241500 23005KT P6SM BKN050
     FM241700 25015G25KT P6SM VCTS BKN050CB=

USA.gov is the U.S. government's official web portal to all federal, state and local government web resources and services.